Regional Weather Roundup
Issued by NWS Upton, NY

Current Version | Previous Version | Graphics & Text | Print | Product List | Glossary Off
Versions: 1 2 3 4 5 6 7 8 9 10 11 12 13 14 15 16 17 18 19 20 21 22 23 24 25 26 27 28 29 30 31 32 33 34 35 36 37 38 39 40 41 42 43 44 45 46 47 48 49 50

752
ASUS41 KOKX 281809
RWROKX

REGIONAL WEATHER ROUNDUP
NATIONAL WEATHER SERVICE NEW YORK NY
200 PM EDT WED JUN 28 2017

NOTE: "FAIR" INDICATES FEW OR NO CLOUDS BELOW 12,000 FEET WITH NO
SIGNIFICANT WEATHER AND/OR OBSTRUCTIONS TO VISIBILITY.

NYZ071-072-176-178-NJZ106-104-281900-
NEW YORK CITY METRO AREA

CITY           SKY/WX    TMP DP  RH WIND       PRES   REMARKS
Central Park   MOSUNNY   75  49  39 W10G21    30.14S
Bronx Bot Gard   N/A     75  48  38 NW6       30.11F
LaGuardia APRT MOSUNNY   77  49  37 NW12G25   30.11S
Kennedy INTL   MOSUNNY   77  48  35 NW12G20   30.13R
Breezy Point     N/A     73 N/A N/A W10         N/A
Newark/Liberty PTSUNNY   78  49  35 W12G24    30.11F
Teterboro      PTSUNNY   77  50  38 W18G26    30.10F
$$

NYZ177-179-078>081-281900-
LONG ISLAND NEW YORK

CITY           SKY/WX    TMP DP  RH WIND       PRES   REMARKS
Jones Beach      N/A     72 N/A N/A SW8G14      N/A
Matinecock PT    N/A    N/A N/A N/A W12         N/A
Farmingdale    NOT AVBL
MacArthur/ISP  MOSUNNY   78  47  33 W17G26    30.11R
Shirley        SUNNY     76  50  40 NW16G23   30.12R
Mt Sinai Harb    N/A    N/A N/A N/A W10G16      N/A
Westhampton    MOSUNNY   76  45  33 NW13      30.12R
East Hampton   FAIR      74  50  42 W12G20    30.10R
Montauk          N/A     74  53  48 W8        30.11R
$$

NYZ052-065-067-281900-
HUDSON VALLEY

CITY           SKY/WX    TMP DP  RH WIND       PRES   REMARKS
White Plains   PTSUNNY   75  47  36 NW15G23   30.12R
Larchmont Harb   N/A     72 N/A N/A W16G22      N/A
Croton O-T Hud   N/A     73 N/A N/A W15G22      N/A
Newburgh       MOSUNNY   73  52  46 NW17      30.12S
Montgomery     MOSUNNY   75  48  38 W6G24     30.11S
Poughkeepsie   MOSUNNY   76  49  38 W16       30.09S
Albany         MOSUNNY   73  50  44 W12       30.09S
$$

NJZ001-105-106-008-010-013-015-019>022-104-281900-
NEW JERSEY

CITY           SKY/WX    TMP DP  RH WIND       PRES   REMARKS
Newark/Liberty PTSUNNY   78  49  35 W12G24    30.11F
Teterboro      PTSUNNY   77  50  38 W18G26    30.10F
Caldwell       PTSUNNY   78  47  33 W12G21    30.12F
Somerville     MOSUNNY   76  53  44 W6        30.11F
Linden         FAIR      77  48  36 NW9G23    30.13S
Perth Amboy      N/A     73 N/A N/A W15G22      N/A
Sussex         MOSUNNY   76  49  38 NW10      30.13S
Andover          N/A     73  47  39 NW7       30.13F
Trenton        SUNNY     77  51  40 NW10G17   30.13F
Millville      SUNNY     77  50  38 NW9       30.15F
Atlantic City  NOT AVBL
Wrightstown    MOSUNNY   77  49  37 N10G20    30.11F
Toms River     MOSUNNY   79  48  33 W12G17    30.14F
Belmar         PTSUNNY   76  47  35 W13G21    30.14F
$$

PAZ047>061-062-071-281900-
EASTERN PENNSYLVANIA

CITY           SKY/WX    TMP DP  RH WIND       PRES   REMARKS
Philadelphia   MOSUNNY   78  46  32 W10       30.14F
Allentown      SUNNY     76  50  40 NW13      30.14F
Scranton       CLOUDY    74  51  44 N7        30.14F
$$

CTZ002-004>006-009-010-012-RIZ004-006-007-MAZ004-011-015-281900-
SOUTHERN NEW ENGLAND
 IN CT

CITY           SKY/WX    TMP DP  RH WIND       PRES   REMARKS
Bradley INTL   PTSUNNY   76  48  37 NW14G22   30.08R
Hartford       MOSUNNY   76  49  38 W8G17     30.08R
Danbury        PTSUNNY   73  52  46 MISG      30.12S
Wtrbury/Oxford PTSUNNY   72  46  40 NW7G16    30.12R
Bridgeport     MOSUNNY   78  46  32 W13G23    30.10R
Meriden        MOSUNNY   74  46  36 NW13G20   30.09R
New Haven      MOSUNNY   75  47  36 NW12G20   30.09S
Chester        FAIR      73  45  35 NW12      30.09S
Groton         PTSUNNY   69  59  70 SW12      30.07S
Wilimantic     MOSUNNY   76  47  35 NW9       30.08R

 IN RI

CITY           SKY/WX    TMP DP  RH WIND       PRES   REMARKS
Providence     MOSUNNY   75  48  38 NW14      30.06R
Block Island   SUNNY     72  56  57 SW14      30.09S
Westerly       MOSUNNY   74  55  51 SW12G21   30.08S
 IN MA

CITY           SKY/WX    TMP DP  RH WIND       PRES   REMARKS
Boston         MOSUNNY   75  48  38 W15G22    30.02S
Worcester      MOSUNNY   70  44  39 W15       30.08R
Westfield      MOSUNNY   76  47  35 NW13G23   30.07S
Provincetown   SUNNY     73  52  47 VRB7      30.05R
Nantucket      SUNNY     69  58  67 SW21      30.07R
$$

ANZ330-335-338-340-345-350-353-355-281900-
COASTAL MARINE OBSERVATIONS


STATION/POSITION TIME  SKY/WX   TEMP    WIND        PRES    VSBY  WAVE
                                AIR SEA DIR/SP/G                  HT/PER
                 (UTC)          (F)     (DEG/KT/KT) (MB)    (MI)  (FT/S)
NY HARB ENTRANCE 1650            68 69  280/  6/  8 1020.3          1/13
20 S FIRE ISLAND 1750            68 70  280/ 12/ 14 1020.1          2/ 4
GREAT SOUTH BAY  1715            73 76  300/ 12/ 16   N/A
23 SSW MONTAUK P 1650            65 66              1019.7          2/ 4
15 E BARNEGAT LI 1730               68                N/A           1/13
HUDSON CANYON    1650            67 69  300/ 12/ 14 1020.5          3/ 4
KINGS POINT      1742            72 65  310/ 10/ 18 1019.8
EXECUTION ROCKS  1745            74     290/ 12/ 16   N/A
CENTRAL LI SOUND NOT AVBL
EASTERN LI SOUND NOT AVBL
ROBBINS REEF     1736                   280/ 13/ 19 1020.6
$$


>>>>>>>>>>>>>>>>>>>>>>>>>>>> KEY <<<<<<<<<<<<<<<<<<<<<<<<<<<
>                                                          <
>     SKY/WX - Sky Condition/Present Weather               <
>     TMP    - Temperature in Fahrenheit                   <
>     DP     - Dew Point in Fahrenheit                     <
>     RH     - Relative Humidity in Percent                <
>     WIND   - Direction (from) and Speed in MPH           <
>     PRES   - Mean Sea Level Pressure (inches of Hg)      <
>     WCI    - Wind Chill Index                            <
>     VSB    - VISIBILITY IN MILES                         <
>     HX     - HEAT INDEX                                  <
>     TC     - TEMPERATURE IN CELSIUS                      <
>     VRB    - VARIABLE WIND DIRECTION                     <
>                                                          <
>>>>>>>>>>>>>>>>>>>>>>>>>>>> KEY <<<<<<<<<<<<<<<<<<<<<<<<<<<




USA.gov is the U.S. government's official web portal to all federal, state and local government web resources and services.